Home   Weather   Wakefield   Past weeks

Flag for United Kingdom Past Weather in Wakefield, England, United Kingdom — Yesterday and Last 2 Weeks

Now
50 °F

Scattered clouds.


Feels Like: 43 °F
Forecast: 34 / 48 °F
Wind: 22 mph from West

Location: Leeds And Bradford

Current Time: Apr 24, 2017 at 4:25:59 pm

Latest Report: Apr 24, 2017 at 3:50 pm


Visibility: N/A

Pressure: 29.86 "Hg

Humidity: 43%

Dew Point: 28 °F

Location of WakefieldLocation

Past Weather in Wakefield — Graph

°F

Wakefield Temperature Yesterday

Maximum temperature yesterday: 54 °F (at 1:20 pm)
Minimum temperature yesterday: 37 °F (at 12:20 am)
Average temperature yesterday: 46 °F

High & Low Weather Summary for the Past Weeks

 TemperatureHumidityPressure
High66 °F (Apr 9, 2:20 pm)100% (Apr 14, 7:20 am)30.60 "Hg (Apr 14, 7:20 am)
Low30 °F (Apr 18, 5:50 am)43% (Apr 24, 1:50 pm)29.83 "Hg (Apr 14, 7:20 pm)
Average45 °F80%30.21 "Hg
* Reported Apr 9 2:20 pm — Apr 24 2:50 pm, Wakefield, Weather by CustomWeather, © 2017

Note: Actual official high and low records may vary slightly from our data, if they occured in-between our weather recording intervals... More about our weather records

Advertising

Wakefield Weather History for the Previous 24 Hours

Scroll right to see more
 ConditionsComfort  
Time TempWeatherWind HumidityBarometerVisibility
2:50 pm
Mon, Apr 24
50 °FScattered clouds.20 mph43%29.86 "HgN/A
2:20 pm50 °FScattered clouds.17 mph47%29.89 "HgN/A
1:50 pm50 °FScattered clouds.20 mph43%29.89 "HgN/A
1:20 pm50 °FScattered clouds.20 mph50%29.89 "HgN/A
12:50 pm48 °FScattered clouds.14 mph62%29.92 "HgN/A
12:20 pm46 °FScattered clouds.12 mph66%29.92 "HgN/A
11:50 am46 °FScattered clouds.3 mph87%29.92 "HgN/A
11:20 am45 °FScattered showers. Scattered clouds.7 mph87%29.92 "HgN/A
10:50 am43 °FLight rain. Broken clouds.14 mph93%29.92 "HgN/A
10:20 am46 °FLight rain. Scattered clouds.17 mph87%29.92 "HgN/A
9:50 am48 °FScattered showers. Scattered clouds.16 mph82%29.92 "HgN/A
9:20 am48 °FScattered showers. Scattered clouds.14 mph87%29.92 "HgN/A
8:50 am46 °FSprinkles. Scattered clouds.15 mph87%29.92 "HgN/A
8:20 am46 °FScattered clouds.12 mph87%29.95 "HgN/A
7:50 am45 °FScattered clouds.7 mph87%29.95 "HgN/A
7:20 am46 °FScattered clouds.10 mph82%29.95 "HgN/A
6:50 am46 °FScattered clouds.9 mph87%29.95 "HgN/A
6:20 am46 °FScattered clouds.12 mph87%29.95 "HgN/A
5:50 am46 °FScattered clouds.13 mph87%29.95 "HgN/A
5:20 am46 °FPassing clouds.16 mph87%29.95 "HgN/A
4:50 am46 °FPassing clouds.15 mph87%29.95 "HgN/A
4:20 am46 °FPassing clouds.14 mph87%29.98 "HgN/A
3:50 am46 °FPassing clouds.15 mph87%29.98 "HgN/A
3:20 am46 °FPassing clouds.17 mph87%29.98 "HgN/A
2:50 am46 °FPassing clouds.17 mph87%29.98 "HgN/A
2:20 am46 °FPassing clouds.16 mph87%30.01 "HgN/A
1:50 am46 °FPassing clouds.14 mph87%30.04 "HgN/A
1:20 am46 °FPassing clouds.14 mph93%30.04 "HgN/A
12:50 am46 °FPassing clouds.10 mph93%30.04 "HgN/A
12:20 am46 °FPassing clouds.14 mph93%30.07 "HgN/A
11:50 pm
Sun, Apr 23
46 °FPassing clouds.16 mph87%30.07 "HgN/A
11:20 pm45 °FPassing clouds.14 mph93%30.07 "HgN/A
10:50 pm45 °FPassing clouds.7 mph87%30.09 "HgN/A
10:20 pm45 °FPassing clouds.6 mph81%30.09 "HgN/A
9:50 pm43 °FPassing clouds.14 mph81%30.12 "HgN/A
9:20 pm45 °FPassing clouds.13 mph76%30.12 "HgN/A
8:50 pm45 °FPassing clouds.17 mph76%30.12 "HgN/A
8:20 pm45 °FPassing clouds.15 mph76%30.12 "HgN/A
7:50 pm46 °FSunny.14 mph71%30.12 "Hg10 mi
7:20 pm48 °FSunny.14 mph58%30.15 "Hg10 mi
6:50 pm50 °FSunny.20 mph50%30.15 "Hg10 mi
6:20 pm50 °FSunny.16 mph54%30.15 "Hg10 mi
5:50 pm52 °FSunny.20 mph50%30.15 "Hg10 mi
5:20 pm50 °FSunny.16 mph58%30.15 "Hg10 mi
4:50 pm54 °FPassing clouds.16 mph54%30.18 "HgN/A
4:20 pm54 °FPassing clouds.17 mph54%30.18 "HgN/A
Weather by CustomWeather, © 2017

See weather overviewHow to use our weather pages